[[{"header":{"parameterUnit":"m.s-1","parameterCategory":1,"la1":30.2991,"la2":30.254,"lo1":-89.0895,"lo2":-89.0444,"dy":0.0017,"dx":0.0017,"nx":28,"ny":28,"refTime":"2025-04-06T21:00:00:Z","depth":0,"parameterNumber":2,"parameterNumberName":"U-component_of_WINDS"},"data":[0,0,0,0,0,0,0,0,0,0,0,0,0,0,0,0,0,0,0,0,0,0,0,0,0,0,0,0,0,0,0,0,0,0,0,0,0,0,0,0,0,0,0,0,0,0,0,0,0,0,0,0,0,0,0,0,0,0,3.905,3.9049,0,3.9007,3.9006,3.9006,3.89,3.8897,3.8895,3.8893,3.8853,3.8854,3.8855,0,0,0,0,0,0,0,0,0,0,0,0,0,3.9045,3.9046,3.905,3.9049,3.9049,3.9007,3.9006,3.9006,3.89,3.8897,3.8895,3.8892,3.8853,3.8854,3.8855,0,0,0,0,0,0,0,0,0,0,0,0,0,3.9029,3.9046,3.905,3.8991,3.8985,3.9007,3.9006,3.9005,3.8901,3.8897,3.8894,3.8891,3.8853,3.8854,3.8856,3.8932,0,0,3.886,3.8861,0,0,0,0,0,0,0,0,3.903,3.903,3.9,3.8995,3.8988,3.8955,3.899,3.8981,3.8901,3.8933,3.8893,3.8889,3.889,3.8888,3.8888,3.8931,3.8929,3.886,3.8861,3.8862,3.8862,0,0,0,0,0,0,0,3.9032,3.9031,3.9033,3.9,3.8993,3.8968,3.8962,3.8988,3.8931,3.893,3.8922,3.8918,3.8886,3.8887,3.8886,3.8928,3.886,3.8862,3.8863,3.8863,3.9033,3.9037,0,0,0,0,0,0,3.9041,3.9033,3.9034,3.9031,3.9001,3.8971,3.8964,3.8969,3.893,3.8921,3.8921,3.8913,3.8886,3.8884,3.8884,3.8972,3.8862,3.8863,3.8864,3.903,3.9034,3.9038,0,0,0,0,0,0,3.9041,3.9042,3.9036,3.903,3.9027,3.8974,3.8981,3.897,3.897,3.8924,3.8914,3.8931,3.8883,3.8882,3.8921,3.8969,3.8864,3.8866,3.9026,3.9031,3.9036,3.9149,0,0,0,0,0,0,3.9041,3.9042,3.907,3.9031,3.9028,3.9072,3.8984,3.8972,3.8973,3.8962,3.8931,3.8922,3.888,3.892,3.8923,3.897,3.8867,3.9021,3.9028,3.9035,3.9141,3.9157,3.9172,0,0,0,0,0,3.9041,3.9104,3.9072,3.9073,3.9061,3.9075,3.9073,3.9023,3.8977,3.9005,3.8975,3.8923,3.8964,3.8924,3.8927,3.8975,3.9018,3.9026,3.9034,3.9134,3.9154,3.9171,0,0,0,0,0,0,3.9151,3.9098,3.9061,3.9113,3.9099,3.9057,3.9091,3.9046,3.9046,3.9036,3.8974,3.8968,3.9016,3.9,3.8957,3.9048,3.8982,3.8992,3.9057,3.9076,3.9092,3.9095,3.8868,0,0,0,0,0,3.9181,3.9195,3.9149,3.9199,3.9194,3.9144,3.9148,3.911,3.9094,3.9088,3.9061,3.9049,3.9059,3.9067,3.9073,3.9138,3.913,3.9173,3.9188,3.9201,3.921,3.9244,3.9262,3.9065,3.9065,3.9065,0,0,3.9243,3.9216,3.9229,3.922,3.9205,3.9223,3.914,3.9162,3.9175,3.9092,3.9127,3.9107,3.909,3.9142,3.9164,3.913,3.9263,3.9212,3.9222,3.9224,3.9254,3.9273,3.929,3.907,3.9069,3.9068,0,0,3.9365,3.9346,3.9386,3.9372,3.935,3.9317,3.9327,3.9292,3.9275,3.9309,3.9247,3.9263,3.9281,3.9272,3.9269,3.939,3.9343,3.9394,3.9476,3.951,3.9525,3.9539,3.9582,3.9599,3.9403,3.9403,3.9403,0,3.9446,3.9469,3.9412,3.9439,3.9437,3.9362,3.9403,3.9393,3.9376,3.9377,3.9339,3.9361,3.9343,3.9393,3.9423,3.9423,3.9434,3.9397,3.9527,3.954,3.9552,3.9593,3.961,3.941,3.9409,3.9408,3.9408,0,3.9569,3.9587,3.9622,3.9605,3.9608,3.9642,3.9592,3.9602,3.9565,3.9536,3.9573,3.955,3.9551,3.956,3.9524,3.9605,3.9584,3.9538,3.947,3.9578,3.9616,3.9631,3.9419,3.9416,3.9414,3.9413,0,0,3.9758,3.9711,3.9724,3.9716,3.9687,3.9701,3.9732,3.9732,3.9742,3.9733,3.9759,3.9777,3.9733,3.9731,3.9693,3.9723,3.9821,3.9673,3.9671,3.9701,3.9911,3.9946,3.9965,3.979,3.9793,3.9795,3.9912,0,3.9874,3.9923,3.9874,3.9933,3.9949,3.9879,3.9907,3.9893,3.9868,3.9879,3.9851,3.9865,3.9807,3.9805,3.9831,3.9804,3.9863,3.9795,3.9814,3.9816,3.9821,3.9984,4.0021,4.0133,3.9927,3.9929,3.9931,0,4.0015,4.0011,4.0072,4.004,4.0045,4.007,4.0067,4.0078,4.0062,4.0042,4.004,3.9994,4.0024,3.9959,4.0001,3.9956,3.9961,3.9949,3.9952,3.9952,3.988,3.9989,4.0167,4.0184,3.9953,3.9951,3.995,0,4.0147,4.0158,4.0195,4.0191,4.0154,4.0174,4.016,4.014,4.0144,4.0142,4.0144,4.0146,4.0147,4.0151,4.0107,4.0064,4.0155,4.0086,4.014,4.0141,4.0162,4.0161,4.0344,4.0166,4.0166,4.0166,4.0165,0,4.0281,4.0321,4.0254,4.0278,4.0322,4.0266,4.0311,4.029,4.0274,4.0293,4.0233,4.0253,4.0195,4.0209,4.0176,4.0216,4.0217,4.0202,4.0193,4.0208,4.021,4.021,4.0201,4.017,4.0169,4.0168,4.0168,0,4.0436,4.0393,4.0429,4.0392,4.0384,4.0418,4.0386,4.0407,4.0378,4.0404,4.0407,4.0362,4.0376,4.0333,4.0341,4.0318,4.0377,4.0355,4.0382,4.0375,4.0432,4.0427,4.0621,4.0644,4.0452,4.0454,4.0456,0,4.0524,4.0553,4.0519,4.0527,4.0516,4.053,4.0533,4.048,4.0486,4.047,4.0494,4.0503,4.0506,4.0532,4.0502,4.0507,4.0485,4.0553,4.0486,4.05,4.0486,4.0485,4.0488,4.0567,4.0569,4.0571,4.0572,0,4.0686,4.0663,4.0669,4.0668,4.0673,4.067,4.0663,4.0674,4.0617,4.0627,4.064,4.0643,4.0651,4.066,4.066,4.0647,4.0601,4.0594,4.0607,4.0622,4.0636,4.0629,4.042,4.059,4.0588,4.0587,4.0586,4.0585,4.081,4.0833,4.0812,4.0821,4.081,4.0806,4.0824,4.0797,4.0806,4.0807,4.0776,4.0795,4.078,4.0774,4.0766,4.0782,4.075,4.0769,4.0774,4.0779,4.0789,4.0634,4.0781,4.0781,4.078,4.078,4.0779,0,4.0968,4.0952,4.096,4.0952,4.096,4.0915,4.0905,4.0915,4.0933,4.0921,4.0927,4.0942,4.0952,4.0922,4.0928,4.0946,4.0925,4.0949,4.0947,4.0945,4.0816,4.0804,4.0966,4.0966,4.0966,4.0966,4.0966,4.0966,4.1051,4.1088,4.1063,4.1095,4.1078,4.1095,4.1094,4.109,4.1081,4.11,4.1107,4.1087,4.1069,4.1073,4.1081,4.1072,4.1077,4.1108,4.1093,4.0972,4.0954,4.0937,4.0925,4.111,4.111,4.122,4.1221,4.1222]},{"header":{"parameterUnit":"m.s-1","parameterCategory":1,"la1":30.2991,"la2":30.254,"lo1":-89.0895,"lo2":-89.0444,"dy":0.0017,"dx":0.0017,"nx":28,"ny":28,"refTime":"2025-04-06T21:00:00:Z","depth":0,"parameterNumber":3,"parameterNumberName":"V-component_of_WINDS"},"data":[0,0,0,0,0,0,0,0,0,0,0,0,0,0,0,0,0,0,0,0,0,0,0,0,0,0,0,0,0,0,0,0,0,0,0,0,0,0,0,0,0,0,0,0,0,0,0,0,0,0,0,0,0,0,0,0,0,0,2.9876,2.9882,0,3.0489,3.0496,3.0503,3.0712,3.0709,3.0707,3.0705,3.1337,3.1355,3.1374,0,0,0,0,0,0,0,0,0,0,0,0,0,2.8888,2.8905,2.9875,2.9883,2.989,3.0487,3.0496,3.0504,3.0712,3.0709,3.0706,3.0704,3.1331,3.1353,3.1376,0,0,0,0,0,0,0,0,0,0,0,0,0,2.939,2.891,2.9874,3.0066,3.0089,3.0486,3.0496,3.0507,3.0713,3.0709,3.0706,3.0702,3.1323,3.1351,3.1379,3.163,0,0,3.1467,3.1479,0,0,0,0,0,0,0,0,2.9361,2.9426,3.003,3.0054,3.008,3.052,3.038,3.0884,3.0714,3.0476,3.0705,3.07,3.1068,3.1118,3.1241,3.166,3.1687,3.147,3.1487,3.1499,3.1507,0,0,0,0,0,0,0,2.9326,2.9401,3.0118,3.0039,3.0069,3.0123,3.019,3.0476,3.0786,3.0497,3.0513,3.0583,3.1081,3.1213,3.1257,3.1696,3.1469,3.1494,3.1512,3.1523,3.2354,3.2358,0,0,0,0,0,0,2.9259,2.937,3.0099,3.0136,2.9704,3.0143,3.0219,3.0383,3.0783,3.0841,3.0585,3.059,3.1166,3.1224,3.128,3.1603,3.1499,3.1526,3.1542,3.2349,3.2355,3.236,0,0,0,0,0,0,2.9237,2.9322,3.0074,2.9758,2.9858,3.0165,3.0347,3.0397,3.0529,3.085,3.0907,3.0663,3.1165,3.124,3.1542,3.1627,3.1539,3.1565,3.2343,3.2351,3.2357,3.2247,0,0,0,0,0,0,2.9207,2.9312,2.941,2.9759,2.9874,3.0324,3.0352,3.0411,3.0577,3.0589,3.0938,3.0992,3.1168,3.1498,3.157,3.1665,3.1587,3.2337,3.2346,3.2355,3.2244,3.2249,3.2254,0,0,0,0,0,2.9171,2.9355,2.9414,2.9501,3.0003,3.0328,3.0394,3.0592,3.0583,3.0685,3.0891,3.0981,3.1605,3.1527,3.161,3.1715,3.2332,3.2344,3.2354,3.2242,3.2248,3.2254,0,0,0,0,0,0,2.9011,2.9405,2.9474,2.9776,3.0017,3.0363,3.0497,3.0592,3.0841,3.0843,3.1078,3.1155,3.1439,3.1607,3.1513,3.198,3.1974,3.2002,3.186,3.1869,3.1873,3.1828,3.1611,0,0,0,0,0,2.901,2.924,2.9572,2.9807,2.9924,3.0188,3.0338,3.0469,3.0728,3.0832,3.1061,3.131,3.1563,3.1725,3.1975,3.2268,3.2348,3.2381,3.2386,3.2388,3.2411,3.258,3.2599,3.2396,3.2396,3.2395,0,0,2.9012,2.9255,2.9387,2.9781,2.9983,3.0217,3.0273,3.0519,3.0696,3.087,3.1169,3.1345,3.1639,3.1937,3.2081,3.2087,3.2484,3.2402,3.2401,3.2424,3.2593,3.2612,3.2629,3.2403,3.2402,3.2401,0,0,2.9135,2.9342,2.9561,2.9761,3.0065,3.024,3.0292,3.0624,3.0747,3.1051,3.1186,3.14,3.183,3.2034,3.2194,3.2392,3.2486,3.2467,3.2494,3.2656,3.2672,3.2687,3.276,3.2783,3.2488,3.2488,3.2488,0,2.91,2.9458,2.9661,2.99,3.007,3.0236,3.046,3.0645,3.1015,3.1129,3.113,3.1673,3.1882,3.2232,3.228,3.2403,3.2471,3.243,3.2652,3.267,3.2688,3.276,3.2787,3.2484,3.2484,3.2485,3.2485,0,2.94,2.9645,2.9785,3.0138,3.0323,3.0553,3.0792,3.0956,3.1069,3.1244,3.1551,3.1808,3.2113,3.2205,3.232,3.2572,3.2566,3.2606,3.2606,3.27,3.2772,3.2801,3.2478,3.2479,3.2481,3.2482,0,0,2.9443,2.9903,2.9951,3.0113,3.046,3.0655,3.0892,3.1189,3.1326,3.1574,3.1781,3.214,3.2179,3.236,3.2499,3.264,3.2784,3.2665,3.2675,3.268,3.308,3.3049,3.3078,3.2845,3.2851,3.2856,3.3056,0,2.9613,3.0044,3.0233,3.0579,3.0809,3.0969,3.1176,3.1411,3.158,3.1801,3.1989,3.224,3.2272,3.2382,3.2529,3.2734,3.2868,3.2723,3.3043,3.3051,3.2967,3.3116,3.3085,3.3261,3.3085,3.309,3.3094,0,2.9871,3.0119,3.0486,3.0806,3.091,3.1092,3.138,3.1589,3.1859,3.1973,3.2173,3.2305,3.2562,3.254,3.2898,3.2795,3.2937,3.3057,3.3069,3.311,3.308,3.3163,3.3322,3.3349,3.314,3.3136,3.3133,0,2.9867,3.0294,3.057,3.0703,3.1082,3.1207,3.137,3.1637,3.1804,3.2055,3.2166,3.2444,3.2597,3.2809,3.3013,3.2978,3.3352,3.3348,3.3456,3.3451,3.3531,3.3524,3.3717,3.3615,3.3615,3.3614,3.3614,0,3.004,3.0259,3.0573,3.0743,3.0993,3.1209,3.1451,3.1627,3.1862,3.207,3.2224,3.2416,3.2672,3.2897,3.3057,3.3331,3.3398,3.3498,3.3539,3.3487,3.3474,3.3585,3.358,3.3622,3.362,3.3619,3.3617,0,3.008,3.0299,3.061,3.0942,3.1031,3.1201,3.1487,3.1658,3.1833,3.2094,3.2168,3.2444,3.2716,3.2939,3.3296,3.3404,3.3691,3.3736,3.3599,3.3621,3.3718,3.3706,3.3993,3.4042,3.3902,3.3903,3.3904,0,3.0177,3.035,3.07,3.0849,3.1011,3.1249,3.142,3.1638,3.1809,3.213,3.2263,3.2546,3.2784,3.3212,3.3445,3.3719,3.3775,3.3856,3.3817,3.3759,3.378,3.3768,3.3788,3.386,3.386,3.3861,3.3861,0,3.0327,3.0426,3.0665,3.0943,3.1141,3.137,3.1603,3.1717,3.1978,3.2162,3.2442,3.2626,3.299,3.327,3.3569,3.374,3.3845,3.3871,3.3911,3.3861,3.3776,3.3826,3.3612,3.3864,3.3864,3.3864,3.3864,3.3863,3.0402,3.0563,3.0834,3.1095,3.1293,3.1507,3.1684,3.1881,3.2117,3.243,3.2544,3.2831,3.3098,3.351,3.3682,3.3911,3.3922,3.3979,3.3995,3.4006,3.4001,3.3735,3.3965,3.3966,3.3966,3.3966,3.3966,0,3.0562,3.0744,3.0981,3.1302,3.1507,3.1585,3.1847,3.2015,3.2265,3.2504,3.2735,3.3057,3.3328,3.3582,3.3867,3.4001,3.4057,3.4069,3.4063,3.4101,3.3973,3.3911,3.4019,3.4019,3.4019,3.4019,3.4019,3.4019,3.0669,3.0946,3.1077,3.1454,3.1636,3.1917,3.206,3.2259,3.2451,3.2803,3.3029,3.3191,3.3438,3.3741,3.3995,3.4063,3.4162,3.4161,3.4242,3.4118,3.411,3.4102,3.4046,3.418,3.418,3.4353,3.4354,3.4355]}]]